Tracking 31027 objects as of 19-Jul-2025
HD Live streaming from Space Station
objects crossing your sky now

ONEWEB-0518

Track ONEWEB-0518 now!
10-day predictions
ONEWEB-0518 is classified as:


NORAD ID: 54136
Int'l Code: 2022-138Z
Perigee: 1,191.3 km
Apogee: 1,194.5 km
Inclination: 87.9 °
Period: 109.1 minutes
Semi major axis: 7563 km
RCS: Unknown
Launch date: October 22, 2022
Source: United Kingdom (UK)
Launch site: SRIHARIKOTA (SRI)
Your satellite tracking list
STARLINK-1243
Track 1 satellite(s)




NASA's NSSDC Master Catalog

Two Line Element Set (TLE):
1 54136U 22138Z   25199.70338494  .00000098  00000-0  21133-3 0  9999
2 54136  87.9219  11.2819 0002078  92.6783 267.4588 13.19724766133712
Source of the keplerian elements: AFSPC